www.pogodaiklimat.ru

Погода и климат >> Архив погоды >> Россия >> Приморский край >> Владивосток


АРХИВ ПОГОДЫ в Владивостоке

Время (UTC), дата Ветер
(напр.,м/с)
 
Видим.   Явления Облачность Т
(С)
Тd
(С)
f
(%)
Тe
(С)
Тes
(С)
Комфортность P
(гПа)
Po
(гПа)
Тmin
(С)
Tmax
(С)
R
(мм)
R24
(мм)
S
(см)
06 17.01 С 8-14
{20}
50 км ясно -13.4 -29.3 25 -24 -24 холодно 1017.6 992.7
09 17.01 С 8-13
{17}
50 км ясно -13.8 -27.7 30 -24 -24 прохладно 1017.6 994.9 -12.5
12 17.01 С 7-13
{14}
50 км ясно -16.0 -29.6 30 -27 -27 холодно 1022.0 996.8
15 17.01 С 8-14
{14}
50 км ясно -15.8 -29.5 30 -27 -27 прохладно 1023.3 998.2
18 17.01 С 8-11
{15}
50 км ясно -15.8 -29.5 30 -27 -27 прохладно 1024.5 999.2
21 17.01 С 6-10
{11}
50 км ясно -15.6 -28.8 31 -25 -25 по сезону 1024.4 999.2 -16.1 <0.5
00 18.01 С 5
{10}
50 км ясно -14.8 -28.0 32 -24 -23 по сезону 1025.6 1000.4
03 18.01 С 6 50 км ясно -10.6 -26.8 25 -19 -17 по сезону 1024.8 1000.0
06 18.01 С 6
{11}
50 км ясно -8.0 -24.3 26 -16 -15 по сезону 1023.4 998.9
09 18.01 С 5 50 км 1/0
[Ac lent]
-8.7 -25.0 25 -16 -16 по сезону 1025.0 1000.4 -7.4
12 18.01 С 4 50 км ясно -9.0 -24.2 28 -15 -15 по сезону 1025.4 1000.8
15 18.01 С 5 50 км ясно -10.5 -23.0 35 -18 -18 по сезону 1025.5 1000.7
18 18.01 С 3 50 км ясно -11.2 -24.0 34 -17 -17 по сезону 1025.3 1000.5
21 18.01 С 4 50 км ясно -13.3 -22.4 46 -21 -21 по сезону 1024.3 999.3 -13.9 <0.5
00 19.01 С 3 50 км ясно -12.9 -23.7 40 -19 -18 по сезону 1024.3 999.3 -14.4
03 19.01 ЮЗ 3 20 км ясно -8.0 -18.4 43 -13 -9 тепло 1022.4 998.0
06 19.01 Ю 3 20 км 4/0
[Ci fib]
-4.3 -15.0 43 -9 -8 тепло 1019.2 995.2
09 19.01 ЮВ 2 20 км 8/0
[Ci fib]
-6.9 -15.0 52 -11 -11 тепло 1018.2 993.9 -4.0
12 19.01 СЗ 2 20 км 8/0
[Ci fib]
-6.5 -12.1 64 -11 -11 тепло 1017.8 993.6
15 19.01 С 4 20 км 8/0
[Ac lent Ci fib]
-8.6 -14.6 62 -15 -15 по сезону 1017.5 993.1
18 19.01 С 8-14
{14}
20 км 10/0
[Ac lent]
-7.8 -18.8 41 -17 -17 по сезону 1016.3 992.0
21 19.01 С 4
{14}
20 км 3/0
[Ac lent]
-8.9 -18.3 46 -15 -15 тепло 1015.7 991.3 -8.9
00 20.01 СЗ 2 20 км ясно -9.3 -15.8 59 -14 -12 тепло 1015.2 990.8 -9.6
03 20.01 СЗ 12-16
{17}
50 км 3/3 600 м
[Sc]
-7.8 -19.3 39 -18 -18 по сезону 1013.7 989.5
06 20.01 С 10-15
{18}
50 км 4/4 600 м
[Sc]
-8.1 -23.3 28 -18 -18 по сезону 1013.5 989.2
09 20.01 С 9-16
{17}
50 км 8/8 600 м
[Sc]
-9.4 -21.0 38 -19 -19 по сезону 1015.5 991.1 -7.5
12 20.01 СЗ 6
{16}
50 км ясно -10.2 -19.9 45 -19 -19 по сезону 1016.1 991.6
15 20.01 СЗ 4
{10}
50 км ясно -10.8 -18.7 52 -18 -18 по сезону 1015.9 991.4
18 20.01 СЗ 3 50 км ясно -11.2 -18.2 56 -17 -17 по сезону 1014.9 990.4
21 20.01 С 3 50 км ясно -11.0 -19.4 50 -17 -17 по сезону 1014.2 989.6 -12.3
00 21.01 С 3 50 км 10/0
[Ac lent Cs]
-10.9 -20.5 45 -17 -16 по сезону 1014.2 989.7 -12.4
03 21.01 С 1 50 км 10/0
[]
-8.5 -19.3 41 -10 -8 тепло 1013.1 988.8
06 21.01 штиль 0 50 км 6/0
[Cs]
-6.0 -16.8 42 -6 -4 тепло 1011.4 987.4
09 21.01 С 3 50 км 8/0
[Cc]
-7.8 -17.7 45 -13 -13 по сезону 1013.0 988.8 -5.9
12 21.01 С 3 50 км 8/0
[Cc]
-8.8 -18.3 46 -14 -14 по сезону 1014.3 990.0
15 21.01 С 4 50 км ясно -10.7 -19.1 50 -18 -18 по сезону 1015.4 990.9
18 21.01 СЗ 4 50 км ясно -10.5 -18.9 50 -17 -17 по сезону 1016.0 991.5
21 21.01 С 4 50 км ясно -10.1 -18.3 51 -17 -17 по сезону 1015.6 991.1 -11.4
00 22.01 С 2 20 км 3/0
[Ac lent]
-9.4 -15.7 60 -14 -13 тепло 1015.3 990.9
03 22.01 Ю 2 20 км 3/0
[Cc]
-5.6 -12.1 60 -10 -5 тепло 1013.6 989.5
06 22.01 ЮВ 5 50 км 9/0
[Cc]
-5.3 -14.3 49 -12 -11 по сезону 1011.5 987.5
09 22.01 ЮВ 7
{10}
50 км 4/0
[Ac lent]
-5.6 -9.6 73 -14 -14 по сезону 1010.6 986.7 -4.1
12 22.01 ЮВ 6
{11}
50 км 8/0
[Ac trans]
-4.5 -7.2 81 -12 -12 тепло 1010.1 986.3
15 22.01 СЗ 4 50 км ясно -3.8 -6.1 84 -10 -10 тепло 1011.0 987.2
18 22.01 СЗ 9-12
{13}
50 км ясно -3.3 -16.5 35 -11 -11 тепло 1011.0 987.3
21 22.01 СЗ 6
{12}
50 км ясно -5.4 -16.4 42 -13 -13 тепло 1010.8 986.8 -5.7
00 23.01 С 5
{10}
50 км ясно -8.3 -15.6 56 -16 -15 по сезону 1013.2 988.9 -8.4
03 23.01 С 7-10
{13}
50 км 8/0
[Ac cast]
-5.2 -15.9 43 -13 -12 по сезону 1013.7 989.7
06 23.01 С 11-17
{17}
50 км 6/6 600 м
[Sc]
-5.2 -18.3 35 -14 -14 по сезону 1014.3 990.3
09 23.01 С 8-15
{17}
50 км 9/9 600 м
[Sc]
-6.6 -18.2 39 -15 -15 по сезону 1017.6 993.4 -5.1
12 23.01 С 7
{18}
50 км 8/8 600 м
[Sc]
-8.8 -18.6 45 -17 -17 по сезону 1020.0 995.5
15 23.01 С 7-10
{11}
50 км 10/10 600 м
[Sc]
-9.6 -16.7 56 -19 -19 по сезону 1021.2 996.7
18 23.01 С 10-15
{16}
50 км 4/4 600 м
[Sc]
-10.7 -19.0 50 -21 -21 по сезону 1022.3 997.6
21 23.01 С 7-12
{15}
50 км ясно -11.7 -18.9 55 -21 -21 по сезону 1022.7 997.9 -11.7
00 24.01 С 6
{12}
50 км ясно -12.1 -19.3 55 -21 -20 по сезону 1024.2 999.3 -12.4
03 24.01 С 6-11
{13}
50 км ясно -9.3 -20.0 41 -17 -16 по сезону 1023.8 999.2

 

Местоположение метеостанции Владивосток (Приморский край, Россия): широта 43.12 долгота 131.90 высота над уровнем моря 188 м.

В архиве по умолчанию представлена погода в Владивостоке за последнюю неделю. Архивные данные за месяц целиком и за предыдущие месяцы, начиная с января 2011 года, Вы можете получить, выбрав интересующий диапазон дат из раскрывающегося списка и нажав кнопку "Ввод!".


*Определитесь, кто Вы:
робот инопланетянин человек

Внимание! Время в таблицах - всемирное. Для получения местного времени необходимо прибавить поправку, которая равна 10 ч.

Смотрите также архив погоды в соседних городах и на ближайших метеорологических станциях:

Погода на Мысе Назимова (Приморский край, Россия) (8 км)
Погода в Барабаше (Приморский край, Россия) (42 км)
Погода в Многоудобном (Приморский край, Россия) (60 км)
Погода в Находке (Приморский край, Россия) (81 км)
Погода в Гамове (Приморский край, Россия) (84 км)
Погода в Тимирязевском (Приморский край, Россия) (85 км)
Погода в Партизанске (Приморский край, Россия) (89 км)
Погода в Посьете (Приморский край, Россия) (104 км)
Погода в Полтавке (Приморский край, Россия) (112 км)
Погода в Анучино (Приморский край, Россия) (130 км)

Пояснения к столбцам:

Ветер - указаны скорость ветра в м/с - средняя за 10 мин, порывы в срок и между сроками (в фигурных скобках) и направление, откуда дует ветер: С - северный, СВ - северо-восточный, В - восточный, ЮВ - юго-восточный, Ю - южный, ЮЗ - юго-западный, З - западный, СЗ - северо-западный.
Видимость - горизонтальная дальность видимости в метрах или километрах. При видимости от 1 до 10 км при отсутствии осадков обычно наблюдается дымка, при ухудшении видимости до 1 км и менее - туман. В сухую погоду видимость может ухудшаться дымом, пылью или мглою.
Явления - указаны атмосферные явления, наблюдавшиеся в срок или в последний час перед сроком; фигурными скобками обозначены явления, наблюдавшиеся между сроками (за 1-3 часа до срока); квадратными скобками обозначены град или гололедные отложения с указанием их диаметра в мм.
Облачность - указаны через наклонную черту общая и нижняя облачность в баллах и высота нижней границы облаков в метрах; квадратными скобками обозначены формы облаков: Ci - перистые, Cs - перисто-слоистые, Cc - перисто-кучевые, Ac - высококучевые, As - высокослоистые, Sc - слоисто-кучевые, Ns - слоисто-дождевые, Cu - кучевые, Cb - кучево-дождевые. Подробнее классификацию облаков см. в Атласе облаков (PDF).
T - Температура воздуха - температура, измеренная на высоте 2 м над землей.
Td - Температура точки росы - температура, при понижении до которой содержащийся в воздухе водяной пар достигнет насыщения.
f - Относительная влажность воздуха - влажноcть воздуха, измеренная на высоте 2 м над землей.
Te - Эффективная температура - температура, которую ощущает одетый по сезону человек в тени. Характеристика душности погоды. При расчете учитывается влияние влажности воздуха и скорости ветра на теплоощущения человека.
Tes - Эффективная температура на солнце - температура, которую ощущает человек, с поправкой на солнечный нагрев. Характеристика знойности погоды. Зависит от высоты солнца над горизонтом, облачности и скорости ветра. Ночью, в пасмурную погоду, а также при ветре 12 м/с и более поправка равна нулю.
P - Атмосферное давление - приведенное к уровню моря атмосферное давление.
Po - Атмосферное давление - измеренное на уровне метеостанции атмосферное давление.
Tmin - Минимальная температура - минимум температуры воздуха на высоте 2 м над землей.
Tmax - Максимальная температура - максимум температуры воздуха на высоте 2 м над землей.
R - Количество осадков - Количество выпавших осадков за период времени, мм. При наведении курсора мыши на число - период времени, за который выпало указанное количество осадков.
R24 - Количество осадков - Количество выпавших осадков за 24 часа, мм.
S - Снежный покров - Высота снежного покрова, см. При наведении курсора мыши на число - состояние снежного покрова и степень покрытия местности в баллах.